Weather past 2 weeks in Willemstad, Curaçao

Now
86 °F

Partly sunny.


Feels Like: 95 °F
Forecast: 80 / 87 °F
Wind: 15 mph from East

Location: Hato Airport - Curacao

Current Time: Jul 3, 2015 at 11:50:24 AM

Latest Report: Jul 3, 2015 at 11:00 AM


Visibility: N/A

Pressure: 29.98 "Hg

Humidity: 70%

Dew point: 75 °F

Location of WillemstadLocation

Historic Weather in Willemstad — Graph

°F

Willemstad temperature yesterday

Maximum temperature yesterday: 88 °F (at 1:00 PM)
Minimum temperature yesterday: 79 °F (at 1:00 AM)
Average temperature yesterday: 82 °F

Past Weeks' High & Low Weather Summary

 TemperatureHumidityPressure
High90 °F (Jun 18, 3:00 PM)89% (Jun 19, 12:00 AM)30.04 "Hg (Jun 19, 12:00 AM)
Low79 °F (Jun 21, 6:00 AM)59% (Jun 30, 4:00 PM)29.89 "Hg (Jun 18, 4:00 PM)
Average83 °F77%29.98 "Hg
* Reported Jun 18 10:00 AM — Jul 3 10:00 AM, Willemstad, Weather by CustomWeather, © 2015

Note: Actual official high and low records may vary slightly from our data, if they occured in-between our weather recording intervals... More about our weather records

Advertising

Willemstad weather history for previous 24 hours

 ConditionsComfort  
Time TempWeatherWind HumidityBarometerVisibility
10:00 AM
Fri, Jul 3
86 °FPassing clouds.16 mph70%29.98 "HgN/A
9:00 AM86 °FPassing clouds.15 mph70%29.98 "HgN/A
8:00 AM82 °FPassing clouds.14 mph79%29.95 "HgN/A
7:00 AM81 °FScattered clouds.9 mph84%29.95 "HgN/A
6:00 AM79 °FPassing clouds.8 mph89%29.92 "HgN/A
5:00 AM79 °FPassing clouds.12 mph89%29.92 "HgN/A
4:00 AM79 °FPassing clouds.12 mph89%29.92 "HgN/A
3:00 AM81 °FPassing clouds.8 mph84%29.92 "HgN/A
2:00 AM81 °FPassing clouds.9 mph84%29.92 "HgN/A
1:00 AM81 °FPassing clouds.10 mph84%29.95 "HgN/A
11:00 PM
Thu, Jul 2
81 °FPassing clouds.10 mph79%29.98 "HgN/A
10:00 PM81 °FPassing clouds.10 mph84%29.95 "HgN/A
9:00 PM81 °FPassing clouds.12 mph84%29.95 "HgN/A
8:00 PM81 °FPassing clouds.15 mph79%29.92 "HgN/A
7:00 PM81 °FPassing clouds.14 mph79%29.89 "HgN/A
6:00 PM82 °FPassing clouds.12 mph74%29.89 "HgN/A
5:00 PM84 °FPassing clouds.12 mph70%29.89 "HgN/A
4:00 PM86 °FPassing clouds.16 mph66%29.89 "HgN/A
3:00 PM86 °FPassing clouds.17 mph62%29.92 "HgN/A
2:00 PM88 °FPassing clouds.18 mph59%29.95 "HgN/A
1:00 PM88 °FPassing clouds.17 mph59%29.98 "HgN/A
12:00 PM86 °FPassing clouds.18 mph66%29.98 "HgN/A
11:00 AM86 °FPassing clouds.15 mph70%30.01 "HgN/A
Weather by CustomWeather, © 2015

See weather overviewHow to use our weather pages